| time (UTC) | temp F | wind direction | speed MPH | gust MPH | rain 1hr in | rain 24hr in | rain mn in | humidity % | barometer mb |
| 20260504050603 | 56 | 62 | 0.0 | 1.0 | 0.00 | 0.01 | 0.00 | 48 | 1027.0 |
| 20260504050303 | 56 | 62 | 0.0 | 1.0 | 0.00 | 0.01 | 0.00 | 48 | 1026.9 |
| 20260504050003 | 56 | 62 | 0.0 | 1.0 | 0.00 | 0.01 | 0.00 | 49 | 1026.9 |
| 20260504045703 | 55 | 62 | 0.0 | 2.0 | 0.00 | 0.01 | 0.00 | 50 | 1026.8 |
| 20260504045403 | 55 | 62 | 1.0 | 2.0 | 0.00 | 0.01 | 0.00 | 51 | 1026.7 |
| 20260504045103 | 54 | 63 | 1.0 | 2.0 | 0.00 | 0.01 | 0.00 | 52 | 1026.7 |
| 20260504044803 | 54 | 66 | 1.0 | 2.0 | 0.00 | 0.01 | 0.00 | 53 | 1026.7 |
| 20260504044504 | 53 | 61 | 1.0 | 3.0 | 0.00 | 0.01 | 0.00 | 53 | 1026.7 |
| 20260504044203 | 53 | 67 | 2.0 | 3.0 | 0.00 | 0.01 | 0.00 | 55 | 1026.7 |
| 20260504043903 | 53 | 73 | 2.0 | 3.0 | 0.00 | 0.01 | 0.00 | 55 | 1026.6 |
| 20260504043603 | 53 | 76 | 2.0 | 3.0 | 0.00 | 0.01 | 0.00 | 55 | 1026.7 |
| 20260504043303 | 53 | 75 | 2.0 | 3.0 | 0.00 | 0.01 | 0.00 | 55 | 1026.6 |
| 20260504043218 | 53 | 74 | 2.0 | 3.0 | 0.00 | 0.01 | 0.00 | 55 | 1026.6 |
| 20260504042703 | 53 | 61 | 2.0 | 3.0 | 0.00 | 0.01 | 0.00 | 55 | 1026.8 |
| 20260504042403 | 53 | 50 | 1.0 | 3.0 | 0.00 | 0.01 | 0.00 | 54 | 1026.6 |
| 20260504042103 | 53 | 13 | 1.0 | 2.0 | 0.00 | 0.01 | 0.00 | 52 | 1026.3 |
| 20260504041803 | 53 | 329 | 0.0 | 2.0 | 0.00 | 0.01 | 0.00 | 52 | 1026.7 |
| 20260504041503 | 53 | 319 | 0.0 | 2.0 | 0.00 | 0.01 | 0.00 | 52 | 1026.6 |
| 20260504041203 | 53 | 312 | 0.0 | 2.0 | 0.00 | 0.01 | 0.00 | 53 | 1026.7 |
| 20260504040903 | 53 | 306 | 0.0 | 2.0 | 0.00 | 0.01 | 0.00 | 54 | 1026.6 |
| 20260504040603 | 52 | 302 | 1.0 | 6.0 | 0.00 | 0.01 | 0.00 | 54 | 1026.5 |
| 20260504040303 | 52 | 312 | 1.0 | 6.0 | 0.00 | 0.01 | 0.00 | 54 | 1026.7 |
| 20260504040003 | 52 | 327 | 1.0 | 6.0 | 0.00 | 0.01 | 0.00 | 55 | 1026.8 |
| 20260504035703 | 51 | 344 | 1.0 | 6.0 | 0.00 | 0.01 | 0.00 | 55 | 1026.5 |
| 20260504035618 | 51 | 354 | 1.0 | 3.0 | 0.00 | 0.01 | 0.00 | 55 | 1026.7 |
| 20260504035103 | 51 | 347 | 1.0 | 3.0 | 0.00 | 0.01 | 0.00 | 56 | 1026.5 |
| 20260504034804 | 51 | 325 | 0.0 | 1.0 | 0.00 | 0.01 | 0.00 | 57 | 1026.6 |
| 20260504034503 | 51 | 323 | 0.0 | 1.0 | 0.00 | 0.01 | 0.00 | 57 | 1026.5 |
| 20260504034203 | 51 | 323 | 0.0 | 2.0 | 0.00 | 0.01 | 0.00 | 57 | 1026.5 |
| 20260504033903 | 51 | 327 | 1.0 | 2.0 | 0.00 | 0.01 | 0.00 | 56 | 1026.4 |
| 20260504033603 | 51 | 335 | 1.0 | 2.0 | 0.00 | 0.01 | 0.00 | 56 | 1026.3 |
| 20260504033516 | 51 | 336 | 1.0 | 2.0 | 0.00 | 0.01 | 0.00 | 56 | 1026.5 |
| 20260504033003 | 51 | 344 | 1.0 | 2.0 | 0.00 | 0.01 | 0.00 | 57 | 1026.5 |
| 20260504032918 | 51 | 345 | 1.0 | 2.0 | 0.00 | 0.01 | 0.00 | 57 | 1026.4 |
| 20260504032403 | 51 | 331 | 1.0 | 2.0 | 0.00 | 0.01 | 0.00 | 58 | 1026.5 |
| 20260504032103 | 51 | 328 | 0.0 | 1.0 | 0.00 | 0.01 | 0.00 | 58 | 1026.5 |
| 20260504031803 | 51 | 328 | 0.0 | 1.0 | 0.00 | 0.01 | 0.00 | 58 | 1026.3 |
| 20260504031503 | 50 | 327 | 0.0 | 1.0 | 0.00 | 0.01 | 0.00 | 58 | 1026.2 |
| 20260504031203 | 51 | 328 | 0.0 | 1.0 | 0.00 | 0.01 | 0.00 | 58 | 1026.3 |
| 20260504030903 | 51 | 328 | 0.0 | 1.0 | 0.00 | 0.01 | 0.00 | 58 | 1026.4 |
| 20260504030603 | 51 | 330 | 0.0 | 1.0 | 0.00 | 0.01 | 0.00 | 58 | 1026.4 |
| 20260504030518 | 51 | 330 | 0.0 | 1.0 | 0.00 | 0.01 | 0.00 | 58 | 1026.4 |
| 20260504030004 | 51 | 331 | 0.0 | 1.0 | 0.00 | 0.01 | 0.00 | 57 | 1026.3 |
| 20260504025703 | 51 | 331 | 0.0 | 1.0 | 0.00 | 0.01 | 0.00 | 57 | 1026.3 |
| 20260504025404 | 51 | 331 | 0.0 | 1.0 | 0.00 | 0.01 | 0.00 | 57 | 1026.2 |
| 20260504025103 | 51 | 329 | 0.0 | 1.0 | 0.00 | 0.01 | 0.00 | 57 | 1026.5 |
| 20260504024803 | 51 | 330 | 0.0 | 1.0 | 0.00 | 0.01 | 0.00 | 57 | 1026.5 |
| 20260504024503 | 51 | 340 | 0.0 | 1.0 | 0.00 | 0.01 | 0.00 | 56 | 1026.2 |
| 20260504024203 | 51 | 343 | 1.0 | 1.0 | 0.00 | 0.01 | 0.00 | 56 | 1026.4 |
| 20260504023903 | 51 | 346 | 1.0 | 1.0 | 0.00 | 0.01 | 0.00 | 56 | 1026.4 |
| 20260504023603 | 51 | 345 | 0.0 | 1.0 | 0.00 | 0.01 | 0.00 | 56 | 1026.3 |
| 20260504023303 | 51 | 338 | 0.0 | 1.0 | 0.00 | 0.01 | 0.00 | 56 | 1026.4 |
| 20260504023003 | 51 | 0 | 0.0 | 0.0 | 0.00 | 0.01 | 0.00 | 56 | 1026.1 |
| 20260504022918 | 51 | 0 | 0.0 | 0.0 | 0.00 | 0.01 | 0.00 | 56 | 1026.3 |
| 20260504022617 | 51 | 322 | 0.0 | 1.0 | 0.00 | 0.01 | 0.00 | 56 | 1026.2 |
| 20260504022103 | 51 | 323 | 0.0 | 1.0 | 0.00 | 0.01 | 0.00 | 56 | 1026.5 |
| 20260504021803 | 51 | 323 | 0.0 | 1.0 | 0.00 | 0.01 | 0.00 | 56 | 1026.3 |
| 20260504021503 | 51 | 334 | 1.0 | 2.0 | 0.00 | 0.01 | 0.00 | 56 | 1026.4 |
| 20260504021203 | 51 | 347 | 1.0 | 2.0 | 0.00 | 0.01 | 0.00 | 56 | 1026.5 |
| 20260504020903 | 51 | 352 | 1.0 | 2.0 | 0.00 | 0.01 | 0.00 | 56 | 1026.3 |
| 20260504020603 | 51 | 34 | 0.0 | 1.0 | 0.00 | 0.01 | 0.00 | 55 | 1026.4 |
| 20260504020303 | 51 | 33 | 0.0 | 2.0 | 0.00 | 0.01 | 0.00 | 55 | 1026.6 |
| 20260504020003 | 51 | 40 | 0.0 | 2.0 | 0.00 | 0.01 | 0.00 | 55 | 1026.4 |
| 20260504015703 | 51 | 43 | 1.0 | 2.0 | 0.00 | 0.01 | 0.00 | 55 | 1026.6 |
| 20260504015403 | 51 | 46 | 0.0 | 2.0 | 0.00 | 0.01 | 0.00 | 55 | 1026.2 |
| 20260504015103 | 51 | 56 | 0.0 | 1.0 | 0.00 | 0.01 | 0.00 | 55 | 1026.4 |
| 20260504014803 | 51 | 55 | 0.0 | 1.0 | 0.00 | 0.01 | 0.00 | 55 | 1026.5 |
| 20260504014503 | 51 | 48 | 0.0 | 1.0 | 0.00 | 0.01 | 0.00 | 55 | 1026.6 |
| 20260504014203 | 51 | 48 | 0.0 | 1.0 | 0.00 | 0.01 | 0.00 | 55 | 1026.3 |
| 20260504013903 | 51 | 47 | 0.0 | 1.0 | 0.00 | 0.01 | 0.00 | 55 | 1026.5 |
| 20260504013603 | 51 | 47 | 0.0 | 1.0 | 0.00 | 0.01 | 0.00 | 54 | 1026.5 |
| 20260504013303 | 52 | 39 | 0.0 | 2.0 | 0.00 | 0.01 | 0.00 | 54 | 1026.7 |
| 20260504013003 | 52 | 57 | 1.0 | 3.0 | 0.00 | 0.01 | 0.00 | 53 | 1026.5 |
| 20260504012703 | 52 | 72 | 1.0 | 3.0 | 0.00 | 0.01 | 0.00 | 53 | 1026.5 |
| 20260504012617 | 52 | 75 | 1.0 | 3.0 | 0.00 | 0.01 | 0.00 | 53 | 1026.5 |
| 20260504012317 | 52 | 90 | 1.0 | 3.0 | 0.00 | 0.01 | 0.00 | 53 | 1026.3 |
| 20260504011803 | 52 | 101 | 1.0 | 3.0 | 0.00 | 0.01 | 0.00 | 52 | 1026.3 |
| 20260504011503 | 52 | 115 | 1.0 | 3.0 | 0.00 | 0.01 | 0.00 | 53 | 1026.4 |
| 20260504011203 | 52 | 128 | 1.0 | 3.0 | 0.00 | 0.01 | 0.00 | 52 | 1026.3 |
| 20260504010903 | 52 | 123 | 1.0 | 3.0 | 0.00 | 0.01 | 0.00 | 52 | 1026.5 |
| 20260504010603 | 51 | 95 | 0.0 | 1.0 | 0.00 | 0.01 | 0.00 | 53 | 1026.2 |
| 20260504010303 | 51 | 88 | 0.0 | 1.0 | 0.00 | 0.01 | 0.00 | 53 | 1026.5 |
| 20260504010003 | 51 | 88 | 0.0 | 1.0 | 0.00 | 0.01 | 0.00 | 52 | 1026.2 |
| 20260504005703 | 51 | 86 | 0.0 | 1.0 | 0.00 | 0.01 | 0.00 | 52 | 1026.4 |
| 20260504005403 | 51 | 84 | 0.0 | 1.0 | 0.00 | 0.01 | 0.00 | 53 | 1026.3 |
| 20260504005103 | 51 | 84 | 0.0 | 1.0 | 0.00 | 0.01 | 0.00 | 53 | 1026.3 |
| 20260504005016 | 51 | 84 | 0.0 | 1.0 | 0.00 | 0.01 | 0.00 | 52 | 1026.3 |
| 20260504004503 | 52 | 82 | 1.0 | 2.0 | 0.00 | 0.01 | 0.00 | 52 | 1026.2 |
| 20260504004203 | 52 | 70 | 1.0 | 2.0 | 0.00 | 0.01 | 0.00 | 52 | 1026.3 |
| 20260504003903 | 52 | 56 | 1.0 | 2.0 | 0.00 | 0.01 | 0.00 | 51 | 1026.3 |
| 20260504003603 | 52 | 20 | 1.0 | 2.0 | 0.00 | 0.01 | 0.00 | 51 | 1026.3 |
| 20260504003517 | 52 | 7 | 1.0 | 2.0 | 0.00 | 0.01 | 0.00 | 51 | 1026.3 |
| 20260504003003 | 53 | 332 | 1.0 | 3.0 | 0.00 | 0.01 | 0.00 | 50 | 1026.2 |
| 20260504002703 | 53 | 333 | 1.0 | 3.0 | 0.00 | 0.01 | 0.00 | 50 | 1026.2 |
| 20260504002403 | 53 | 337 | 1.0 | 3.0 | 0.00 | 0.01 | 0.00 | 49 | 1026.1 |
| 20260504002103 | 53 | 343 | 1.0 | 3.0 | 0.00 | 0.01 | 0.00 | 49 | 1026.0 |
| 20260504001803 | 53 | 357 | 1.0 | 3.0 | 0.00 | 0.01 | 0.00 | 49 | 1026.2 |
| 20260504001503 | 53 | 360 | 1.0 | 6.0 | 0.00 | 0.01 | 0.00 | 48 | 1026.2 |
| 20260504001203 | 53 | 358 | 2.0 | 6.0 | 0.00 | 0.01 | 0.00 | 48 | 1026.2 |
| 20260504000903 | 53 | 1 | 2.0 | 6.0 | 0.00 | 0.01 | 0.00 | 48 | 1026.2 |
| 20260504000603 | 53 | 359 | 2.0 | 6.0 | 0.00 | 0.01 | 0.00 | 48 | 1026.2 |
| 20260504000303 | 53 | 5 | 2.0 | 4.0 | 0.00 | 0.01 | 0.00 | 48 | 1026.0 |
| 20260504000003 | 53 | 6 | 2.0 | 7.0 | 0.00 | 0.01 | 0.00 | 48 | 1026.3 |
| 20260503235703 | 53 | 6 | 2.0 | 7.0 | 0.00 | 0.01 | 0.00 | 48 | 1026.2 |
| 20260503235616 | 53 | 5 | 2.0 | 7.0 | 0.00 | 0.01 | 0.00 | 48 | 1026.3 |
| 20260503235103 | 53 | 348 | 2.0 | 7.0 | 0.00 | 0.01 | 0.00 | 48 | 1026.3 |
| 20260503234803 | 53 | 343 | 2.0 | 6.0 | 0.00 | 0.01 | 0.00 | 48 | 1026.2 |
| 20260503234718 | 53 | 338 | 2.0 | 6.0 | 0.00 | 0.01 | 0.00 | 49 | 1026.2 |
| 20260503234203 | 53 | 325 | 2.0 | 6.0 | 0.00 | 0.01 | 0.00 | 49 | 1026.1 |
| 20260503233903 | 53 | 329 | 2.0 | 7.0 | 0.00 | 0.01 | 0.00 | 49 | 1026.3 |
| 20260503233817 | 53 | 331 | 3.0 | 7.0 | 0.00 | 0.01 | 0.00 | 49 | 1026.3 |
| 20260503233303 | 53 | 338 | 3.0 | 8.0 | 0.00 | 0.02 | 0.00 | 49 | 1026.3 |
| 20260503233003 | 53 | 340 | 3.0 | 8.0 | 0.00 | 0.02 | 0.00 | 49 | 1026.2 |
| 20260503232703 | 53 | 347 | 2.0 | 8.0 | 0.00 | 0.02 | 0.00 | 50 | 1026.5 |
| 20260503232403 | 53 | 348 | 2.0 | 6.0 | 0.00 | 0.02 | 0.00 | 50 | 1026.4 |
| 20260503232103 | 53 | 344 | 2.0 | 4.0 | 0.00 | 0.02 | 0.00 | 50 | 1026.4 |
| 20260503231803 | 52 | 336 | 2.0 | 4.0 | 0.00 | 0.02 | 0.00 | 50 | 1026.4 |
| 20260503231503 | 52 | 330 | 1.0 | 4.0 | 0.00 | 0.02 | 0.00 | 51 | 1026.5 |
| 20260503231203 | 52 | 335 | 1.0 | 4.0 | 0.00 | 0.02 | 0.00 | 51 | 1026.3 |
| 20260503230903 | 52 | 349 | 0.0 | 3.0 | 0.00 | 0.02 | 0.00 | 51 | 1026.4 |
| 20260503230603 | 52 | 30 | 0.0 | 2.0 | 0.00 | 0.02 | 0.00 | 52 | 1026.3 |
| 20260503230517 | 52 | 30 | 0.0 | 2.0 | 0.00 | 0.02 | 0.00 | 52 | 1026.6 |
| 20260503230003 | 52 | 0 | 0.0 | 0.0 | 0.00 | 0.02 | 0.00 | 52 | 1026.4 |
| 20260503225703 | 52 | 63 | 0.0 | 1.0 | 0.00 | 0.02 | 0.00 | 52 | 1026.6 |
| 20260503225403 | 52 | 61 | 0.0 | 1.0 | 0.00 | 0.02 | 0.00 | 51 | 1026.4 |
| 20260503225103 | 52 | 55 | 0.0 | 1.0 | 0.00 | 0.02 | 0.00 | 51 | 1026.4 |
| 20260503224803 | 53 | 56 | 1.0 | 3.0 | 0.00 | 0.02 | 0.00 | 51 | 1026.3 |
| 20260503224717 | 53 | 57 | 1.0 | 3.0 | 0.00 | 0.02 | 0.00 | 51 | 1026.3 |
| 20260503224203 | 53 | 58 | 2.0 | 3.0 | 0.00 | 0.04 | 0.00 | 50 | 1026.3 |
| 20260503223903 | 53 | 53 | 2.0 | 3.0 | 0.00 | 0.04 | 0.00 | 50 | 1026.5 |
| 20260503223603 | 53 | 32 | 2.0 | 6.0 | 0.00 | 0.05 | 0.00 | 50 | 1026.2 |
| 20260503223303 | 53 | 14 | 2.0 | 7.0 | 0.00 | 0.05 | 0.00 | 50 | 1026.1 |
| 20260503223003 | 53 | 12 | 2.0 | 7.0 | 0.00 | 0.05 | 0.00 | 50 | 1026.2 |
| 20260503222703 | 53 | 7 | 2.0 | 7.0 | 0.00 | 0.05 | 0.00 | 50 | 1026.4 |
| 20260503222403 | 53 | 7 | 2.0 | 4.0 | 0.00 | 0.05 | 0.00 | 50 | 1026.4 |
| 20260503222103 | 53 | 352 | 2.0 | 4.0 | 0.00 | 0.05 | 0.00 | 50 | 1026.4 |
| 20260503221803 | 53 | 340 | 2.0 | 6.0 | 0.00 | 0.05 | 0.00 | 50 | 1026.4 |
| 20260503221503 | 53 | 339 | 3.0 | 8.0 | 0.00 | 0.05 | 0.00 | 49 | 1026.6 |
| 20260503221203 | 53 | 341 | 3.0 | 8.0 | 0.00 | 0.05 | 0.00 | 49 | 1026.5 |
| 20260503220903 | 53 | 342 | 3.0 | 8.0 | 0.00 | 0.05 | 0.00 | 49 | 1026.7 |
| 20260503220603 | 53 | 347 | 3.0 | 8.0 | 0.00 | 0.05 | 0.00 | 49 | 1026.4 |
| 20260503220303 | 53 | 344 | 4.0 | 9.0 | 0.00 | 0.05 | 0.00 | 49 | 1026.5 |
| 20260503220003 | 53 | 344 | 4.0 | 10.0 | 0.00 | 0.05 | 0.00 | 49 | 1026.5 |
| 20260503215703 | 53 | 337 | 4.0 | 10.0 | 0.00 | 0.05 | 0.00 | 49 | 1026.2 |
| 20260503215403 | 53 | 337 | 4.0 | 10.0 | 0.00 | 0.05 | 0.00 | 50 | 1026.6 |
| 20260503215103 | 53 | 335 | 4.0 | 10.0 | 0.00 | 0.05 | 0.00 | 50 | 1026.4 |
| 20260503214803 | 53 | 339 | 4.0 | 8.0 | 0.00 | 0.05 | 0.00 | 50 | 1026.5 |
| 20260503214717 | 53 | 340 | 4.0 | 8.0 | 0.00 | 0.05 | 0.00 | 50 | 1026.5 |
| 20260503214203 | 53 | 341 | 3.0 | 7.0 | 0.00 | 0.05 | 0.00 | 50 | 1026.7 |
| 20260503213903 | 53 | 339 | 2.0 | 6.0 | 0.00 | 0.05 | 0.00 | 50 | 1026.6 |
| 20260503213816 | 53 | 337 | 2.0 | 6.0 | 0.00 | 0.05 | 0.00 | 50 | 1026.5 |
| 20260503213303 | 53 | 324 | 2.0 | 6.0 | 0.00 | 0.05 | 0.00 | 51 | 1026.5 |
| 20260503213003 | 53 | 307 | 2.0 | 4.0 | 0.00 | 0.05 | 0.00 | 51 | 1026.7 |
| 20260503212703 | 53 | 313 | 3.0 | 8.0 | 0.00 | 0.05 | 0.00 | 51 | 1026.6 |
| 20260503212403 | 53 | 320 | 3.0 | 8.0 | 0.00 | 0.05 | 0.00 | 51 | 1026.6 |
| 20260503212103 | 53 | 330 | 3.0 | 8.0 | 0.00 | 0.05 | 0.00 | 51 | 1026.5 |
| 20260503211803 | 53 | 336 | 3.0 | 8.0 | 0.00 | 0.05 | 0.00 | 51 | 1026.3 |
| 20260503211503 | 53 | 338 | 2.0 | 7.0 | 0.00 | 0.05 | 0.00 | 51 | 1026.5 |
| 20260503211416 | 53 | 337 | 2.0 | 7.0 | 0.00 | 0.05 | 0.00 | 51 | 1026.2 |
| 20260503210903 | 53 | 328 | 1.0 | 4.0 | 0.00 | 0.05 | 0.00 | 50 | 1026.5 |
| 20260503210603 | 53 | 330 | 1.0 | 3.0 | 0.00 | 0.05 | 0.00 | 50 | 1026.5 |
| 20260503210518 | 53 | 327 | 1.0 | 6.0 | 0.00 | 0.05 | 0.00 | 51 | 1026.5 |
| 20260503210005 | 53 | 318 | 2.0 | 8.0 | 0.00 | 0.05 | 0.00 | 50 | 1026.5 |
| 20260503205703 | 53 | 320 | 2.0 | 8.0 | 0.00 | 0.05 | 0.05 | 50 | 1026.4 |
| 20260503205403 | 53 | 321 | 2.0 | 8.0 | 0.00 | 0.05 | 0.05 | 50 | 1026.5 |
| 20260503205103 | 53 | 329 | 2.0 | 6.0 | 0.00 | 0.05 | 0.05 | 50 | 1026.5 |
| 20260503204803 | 53 | 336 | 2.0 | 6.0 | 0.00 | 0.05 | 0.05 | 50 | 1026.5 |
| 20260503204503 | 53 | 331 | 1.0 | 6.0 | 0.00 | 0.05 | 0.05 | 51 | 1026.6 |
| 20260503204416 | 53 | 332 | 1.0 | 6.0 | 0.00 | 0.05 | 0.05 | 51 | 1026.4 |
| 20260503203903 | 53 | 324 | 2.0 | 7.0 | 0.00 | 0.05 | 0.05 | 51 | 1026.3 |
| 20260503203603 | 53 | 323 | 3.0 | 7.0 | 0.00 | 0.05 | 0.05 | 51 | 1026.4 |
| 20260503203303 | 53 | 327 | 3.0 | 8.0 | 0.00 | 0.05 | 0.05 | 51 | 1026.5 |
| 20260503203003 | 53 | 320 | 3.0 | 8.0 | 0.00 | 0.05 | 0.05 | 51 | 1026.6 |
| 20260503202917 | 53 | 319 | 3.0 | 8.0 | 0.00 | 0.05 | 0.05 | 51 | 1026.6 |
| 20260503202403 | 53 | 313 | 2.0 | 7.0 | 0.00 | 0.05 | 0.05 | 51 | 1026.7 |
| 20260503202103 | 53 | 315 | 3.0 | 8.0 | 0.00 | 0.05 | 0.05 | 51 | 1026.7 |
| 20260503201803 | 53 | 323 | 3.0 | 8.0 | 0.00 | 0.05 | 0.05 | 51 | 1026.8 |
| 20260503201503 | 53 | 329 | 3.0 | 8.0 | 0.00 | 0.05 | 0.05 | 51 | 1026.8 |
| 20260503201203 | 54 | 337 | 4.0 | 10.0 | 0.00 | 0.05 | 0.05 | 51 | 1026.7 |
| 20260503200903 | 54 | 340 | 4.0 | 10.0 | 0.00 | 0.05 | 0.05 | 51 | 1026.9 |
| 20260503200603 | 54 | 338 | 4.0 | 10.0 | 0.00 | 0.05 | 0.05 | 51 | 1026.7 |
| 20260503200303 | 54 | 339 | 4.0 | 10.0 | 0.00 | 0.05 | 0.05 | 51 | 1026.6 |
| 20260503200003 | 54 | 334 | 3.0 | 8.0 | 0.00 | 0.05 | 0.05 | 51 | 1026.7 |
| 20260503195703 | 54 | 330 | 3.0 | 8.0 | 0.00 | 0.05 | 0.05 | 51 | 1026.7 |
| 20260503195403 | 54 | 328 | 2.0 | 6.0 | 0.00 | 0.05 | 0.05 | 51 | 1026.7 |
| 20260503195103 | 54 | 321 | 2.0 | 6.0 | 0.00 | 0.05 | 0.05 | 51 | 1026.8 |
| 20260503195017 | 54 | 322 | 2.0 | 6.0 | 0.00 | 0.05 | 0.05 | 51 | 1026.9 |
| 20260503194718 | 54 | 329 | 2.0 | 6.0 | 0.00 | 0.05 | 0.05 | 50 | 1026.8 |
| 20260503194418 | 54 | 327 | 1.0 | 4.0 | 0.00 | 0.05 | 0.05 | 50 | 1026.8 |
| 20260503194118 | 54 | 325 | 1.0 | 6.0 | 0.00 | 0.05 | 0.05 | 50 | 1026.8 |
| 20260503193603 | 54 | 312 | 2.0 | 7.0 | 0.00 | 0.05 | 0.05 | 50 | 1026.6 |
| 20260503193517 | 54 | 309 | 2.0 | 7.0 | 0.00 | 0.05 | 0.05 | 50 | 1026.9 |
| 20260503193217 | 54 | 323 | 3.0 | 9.0 | 0.00 | 0.05 | 0.05 | 50 | 1026.8 |
| 20260503192703 | 54 | 338 | 4.0 | 9.0 | 0.00 | 0.05 | 0.05 | 49 | 1026.8 |
| 20260503192403 | 54 | 346 | 4.0 | 9.0 | 0.00 | 0.05 | 0.05 | 49 | 1026.8 |
| 20260503192103 | 54 | 350 | 3.0 | 8.0 | 0.00 | 0.05 | 0.05 | 49 | 1026.8 |
| 20260503191805 | 54 | 347 | 3.0 | 7.0 | 0.00 | 0.05 | 0.05 | 49 | 1026.7 |
| 20260503191718 | 54 | 345 | 3.0 | 7.0 | 0.00 | 0.05 | 0.05 | 49 | 1026.7 |
| 20260503191203 | 55 | 330 | 3.0 | 10.0 | 0.00 | 0.05 | 0.05 | 49 | 1026.7 |
| 20260503190903 | 55 | 322 | 3.0 | 10.0 | 0.00 | 0.05 | 0.05 | 48 | 1026.5 |
| 20260503190604 | 55 | 325 | 3.0 | 10.0 | 0.00 | 0.05 | 0.05 | 48 | 1026.3 |
| 20260503190517 | 55 | 321 | 3.0 | 10.0 | 0.00 | 0.05 | 0.05 | 48 | 1026.5 |
| 20260503190003 | 55 | 328 | 3.0 | 8.0 | 0.00 | 0.05 | 0.05 | 47 | 1026.9 |
| 20260503185703 | 55 | 331 | 4.0 | 8.0 | 0.00 | 0.05 | 0.05 | 47 | 1026.7 |
| 20260503185404 | 55 | 337 | 4.0 | 9.0 | 0.00 | 0.05 | 0.05 | 47 | 1026.4 |
| 20260503185103 | 55 | 339 | 4.0 | 9.0 | 0.00 | 0.05 | 0.05 | 46 | 1026.5 |
| 20260503184803 | 55 | 345 | 4.0 | 9.0 | 0.00 | 0.05 | 0.05 | 46 | 1026.3 |
| 20260503184503 | 55 | 347 | 4.0 | 10.0 | 0.00 | 0.05 | 0.05 | 46 | 1026.3 |
| 20260503184203 | 55 | 349 | 5.0 | 15.0 | 0.00 | 0.05 | 0.05 | 46 | 1026.4 |
| 20260503183903 | 55 | 353 | 5.0 | 15.0 | 0.00 | 0.05 | 0.05 | 46 | 1026.3 |
| 20260503183603 | 55 | 358 | 5.0 | 15.0 | 0.00 | 0.05 | 0.05 | 46 | 1026.3 |
| 20260503183303 | 55 | 356 | 4.0 | 10.0 | 0.00 | 0.05 | 0.05 | 46 | 1026.2 |
| 20260503183003 | 55 | 358 | 4.0 | 10.0 | 0.00 | 0.05 | 0.05 | 46 | 1026.1 |
| 20260503182703 | 55 | 346 | 4.0 | 10.0 | 0.00 | 0.05 | 0.05 | 47 | 1026.2 |
| 20260503182403 | 55 | 344 | 4.0 | 9.0 | 0.00 | 0.05 | 0.05 | 47 | 1026.0 |
| 20260503182103 | 55 | 345 | 4.0 | 9.0 | 0.00 | 0.05 | 0.05 | 47 | 1026.0 |
| 20260503181803 | 55 | 340 | 4.0 | 9.0 | 0.00 | 0.05 | 0.05 | 47 | 1026.0 |
| 20260503181504 | 55 | 339 | 4.0 | 9.0 | 0.00 | 0.05 | 0.05 | 47 | 1025.9 |
| 20260503181417 | 55 | 341 | 4.0 | 11.0 | 0.00 | 0.05 | 0.05 | 47 | 1025.7 |
| 20260503181117 | 55 | 339 | 4.0 | 14.0 | 0.00 | 0.05 | 0.05 | 47 | 1025.9 |
| 20260503180603 | 55 | 338 | 5.0 | 14.0 | 0.00 | 0.05 | 0.05 | 47 | 1026.0 |
| 20260503180303 | 55 | 338 | 5.0 | 14.0 | 0.00 | 0.05 | 0.05 | 47 | 1026.0 |
| 20260503180004 | 55 | 343 | 5.0 | 11.0 | 0.00 | 0.05 | 0.05 | 47 | 1025.8 |
| 20260503175703 | 55 | 347 | 5.0 | 11.0 | 0.00 | 0.05 | 0.05 | 46 | 1025.7 |
| 20260503175403 | 55 | 340 | 5.0 | 11.0 | 0.00 | 0.05 | 0.05 | 47 | 1025.7 |
| 20260503175103 | 55 | 347 | 5.0 | 11.0 | 0.00 | 0.05 | 0.05 | 47 | 1025.4 |
| 20260503174803 | 55 | 340 | 5.0 | 11.0 | 0.00 | 0.05 | 0.05 | 48 | 1025.6 |
| 20260503174503 | 55 | 344 | 5.0 | 14.0 | 0.00 | 0.05 | 0.05 | 48 | 1025.7 |
| 20260503174203 | 55 | 359 | 5.0 | 14.0 | 0.00 | 0.05 | 0.05 | 47 | 1025.5 |
| 20260503174117 | 55 | 359 | 5.0 | 14.0 | 0.00 | 0.05 | 0.05 | 47 | 1025.5 |
| 20260503173603 | 55 | 20 | 4.0 | 9.0 | 0.00 | 0.05 | 0.05 | 47 | 1025.4 |
| 20260503173303 | 55 | 1 | 5.0 | 14.0 | 0.00 | 0.05 | 0.05 | 47 | 1025.3 |
| 20260503173003 | 55 | 355 | 5.0 | 14.0 | 0.00 | 0.05 | 0.05 | 47 | 1025.4 |
| 20260503172703 | 56 | 350 | 5.0 | 14.0 | 0.00 | 0.05 | 0.05 | 46 | 1025.3 |
| 20260503172403 | 56 | 339 | 5.0 | 14.0 | 0.00 | 0.05 | 0.05 | 46 | 1025.4 |
| 20260503172103 | 56 | 337 | 5.0 | 13.0 | 0.00 | 0.05 | 0.05 | 46 | 1025.4 |
| 20260503171803 | 56 | 345 | 6.0 | 17.0 | 0.00 | 0.05 | 0.05 | 46 | 1025.4 |
| 20260503171503 | 56 | 343 | 6.0 | 17.0 | 0.00 | 0.05 | 0.05 | 46 | 1025.3 |
| 20260503171203 | 56 | 345 | 5.0 | 17.0 | 0.00 | 0.05 | 0.05 | 45 | 1025.5 |
| 20260503170903 | 56 | 341 | 5.0 | 17.0 | 0.00 | 0.05 | 0.05 | 45 | 1025.4 |
| 20260503170817 | 56 | 345 | 5.0 | 17.0 | 0.00 | 0.05 | 0.05 | 45 | 1025.3 |
| 20260503170303 | 56 | 1 | 5.0 | 11.0 | 0.00 | 0.05 | 0.05 | 45 | 1025.2 |
| 20260503160218 | 57 | 353 | 5.0 | 14.0 | 0.00 | 0.05 | 0.05 | 42 | 1024.4 |
| 20260503150903 | 58 | 2 | 7.0 | 19.0 | 0.00 | 0.05 | 0.05 | 40 | 1024.2 |
| 20260503150818 | 58 | 3 | 7.0 | 19.0 | 0.00 | 0.05 | 0.05 | 39 | 1024.3 |
| 20260503150303 | 58 | 355 | 5.0 | 15.0 | 0.00 | 0.05 | 0.05 | 40 | 1024.2 |
| 20260503140303 | 59 | 19 | 7.0 | 21.0 | 0.00 | 0.05 | 0.05 | 37 | 1024.3 |
| 20260503131203 | 59 | 18 | 5.0 | 15.0 | 0.00 | 0.05 | 0.05 | 39 | 1024.4 |
| 20260503130903 | 60 | 6 | 5.0 | 15.0 | 0.00 | 0.05 | 0.05 | 38 | 1024.8 |
| 20260503130817 | 60 | 359 | 5.0 | 15.0 | 0.00 | 0.05 | 0.05 | 38 | 1024.8 |
| 20260503130303 | 59 | 344 | 5.0 | 15.0 | 0.00 | 0.05 | 0.05 | 38 | 1024.3 |
| 20260503110603 | 54 | 329 | 4.0 | 9.0 | 0.00 | 0.05 | 0.05 | 54 | 1025.2 |
| 20260503110303 | 53 | 331 | 3.0 | 10.0 | 0.00 | 0.05 | 0.05 | 57 | 1025.0 |
| 20260503090303 | 54 | 18 | 6.0 | 18.0 | 0.00 | 0.05 | 0.05 | 48 | 1024.8 |
| 20260503081503 | 54 | 247 | 2.0 | 9.0 | 0.00 | 0.05 | 0.05 | 53 | 1024.5 |
| 20260503081418 | 54 | 248 | 2.0 | 9.0 | 0.00 | 0.05 | 0.05 | 53 | 1024.5 |
| 20260503080903 | 53 | 253 | 3.0 | 9.0 | 0.00 | 0.05 | 0.05 | 55 | 1024.5 |
| 20260503080603 | 53 | 256 | 2.0 | 7.0 | 0.00 | 0.05 | 0.05 | 57 | 1024.6 |
| 20260503080303 | 51 | 253 | 2.0 | 7.0 | 0.00 | 0.05 | 0.05 | 58 | 1024.7 |
| 20260503080217 | 51 | 253 | 2.0 | 7.0 | 0.00 | 0.05 | 0.05 | 58 | 1024.4 |
| 20260503072703 | 53 | 248 | 2.0 | 6.0 | 0.00 | 0.05 | 0.05 | 55 | 1024.4 |
| 20260503072403 | 52 | 319 | 2.0 | 7.0 | 0.00 | 0.05 | 0.05 | 55 | 1024.5 |
| 20260503072103 | 51 | 341 | 2.0 | 7.0 | 0.00 | 0.05 | 0.05 | 56 | 1024.3 |
| 20260503071803 | 51 | 354 | 2.0 | 7.0 | 0.00 | 0.05 | 0.05 | 58 | 1024.2 |
| 20260503071503 | 51 | 352 | 1.0 | 3.0 | 0.00 | 0.05 | 0.05 | 59 | 1024.2 |
| 20260503071203 | 50 | 354 | 2.0 | 10.0 | 0.00 | 0.05 | 0.05 | 60 | 1024.2 |
| 20260503070903 | 49 | 349 | 3.0 | 10.0 | 0.00 | 0.05 | 0.05 | 63 | 1024.2 |
| 20260503070603 | 49 | 344 | 3.0 | 13.0 | 0.00 | 0.05 | 0.05 | 64 | 1024.4 |
| 20260503070303 | 49 | 338 | 3.0 | 13.0 | 0.00 | 0.05 | 0.05 | 64 | 1024.5 |
| 20260503070216 | 49 | 337 | 3.0 | 13.0 | 0.00 | 0.05 | 0.05 | 64 | 1024.5 |